| time (UTC) | temp C | wind direction | speed KPH | gust KPH | rain 1hr cm | rain 24hr cm | rain mn cm | humidity % | barometer mb |
| 20260903060047 | 23 | 88 | 0.0 | 0.0 | 0.00 | 0.03 | 0.00 | 82 | 1008.4 |
| 20260903054543 | 23 | 82 | 0.0 | 0.0 | 0.00 | 0.03 | 0.00 | 80 | 1008.5 |
| 20260903053053 | 23 | 48 | 0.0 | 0.0 | 0.00 | 0.03 | 0.00 | 79 | 1008.5 |
| 20260903051542 | 23 | 45 | 0.0 | 0.0 | 0.00 | 0.03 | 0.00 | 77 | 1008.6 |
| 20260903050137 | 23 | 45 | 0.0 | 0.0 | 0.00 | 0.03 | 0.03 | 76 | 1008.6 |
| 20260903044538 | 23 | 44 | 0.0 | 0.0 | 0.00 | 0.03 | 0.03 | 75 | 1008.7 |
| 20260903043036 | 23 | 44 | 0.0 | 0.0 | 0.00 | 0.03 | 0.03 | 74 | 1008.7 |
| 20260903041532 | 24 | 44 | 0.0 | 0.0 | 0.00 | 0.03 | 0.03 | 73 | 1008.7 |
| 20260903040039 | 24 | 44 | 0.0 | 0.0 | 0.00 | 0.03 | 0.03 | 72 | 1009.0 |
| 20260903034530 | 24 | 40 | 0.0 | 0.0 | 0.00 | 0.03 | 0.03 | 71 | 1008.7 |
| 20260903033030 | 25 | 55 | 0.0 | 0.0 | 0.00 | 0.03 | 0.03 | 70 | 1008.9 |
| 20260903031601 | 25 | 55 | 0.0 | 0.0 | 0.00 | 0.03 | 0.03 | 70 | 1008.8 |
| 20260903030059 | 25 | 54 | 0.0 | 0.0 | 0.00 | 0.03 | 0.03 | 70 | 1008.8 |
| 20260903024556 | 25 | 30 | 0.0 | 0.0 | 0.00 | 0.03 | 0.03 | 71 | 1008.8 |
| 20260903023056 | 25 | 25 | 0.0 | 0.0 | 0.00 | 0.03 | 0.03 | 73 | 1008.6 |
| 20260903021557 | 25 | 23 | 0.0 | 0.0 | 0.00 | 0.03 | 0.03 | 75 | 1008.7 |
| 20260903020055 | 25 | 11 | 0.0 | 0.0 | 0.00 | 0.03 | 0.03 | 76 | 1008.7 |
| 20260903014555 | 26 | 149 | 0.0 | 0.0 | 0.00 | 0.03 | 0.03 | 72 | 1008.5 |
| 20260903013052 | 26 | 149 | 0.0 | 0.0 | 0.00 | 0.03 | 0.03 | 70 | 1008.4 |
| 20260903011553 | 26 | 149 | 0.0 | 0.0 | 0.00 | 0.03 | 0.03 | 68 | 1008.4 |
| 20260903010051 | 27 | 149 | 0.0 | 0.0 | 0.00 | 0.03 | 0.03 | 65 | 1008.2 |
| 20260903004555 | 28 | 149 | 0.0 | 0.0 | 0.00 | 0.03 | 0.03 | 62 | 1008.0 |
| 20260903003048 | 28 | 149 | 0.0 | 0.0 | 0.00 | 0.03 | 0.03 | 60 | 1008.3 |
| 20260903001600 | 29 | 149 | 0.0 | 0.0 | 0.00 | 0.03 | 0.03 | 59 | 1008.1 |
| 20260903000045 | 29 | 149 | 0.0 | 0.0 | 0.00 | 0.03 | 0.03 | 57 | 1008.2 |
| 20260902234546 | 30 | 149 | 0.0 | 0.0 | 0.00 | 0.03 | 0.03 | 55 | 1008.2 |
| 20260902233043 | 30 | 149 | 0.0 | 0.0 | 0.00 | 0.03 | 0.03 | 56 | 1008.2 |
| 20260902231543 | 30 | 148 | 0.0 | 0.0 | 0.00 | 0.03 | 0.03 | 54 | 1008.2 |
| 20260902230041 | 30 | 150 | 0.0 | 0.0 | 0.00 | 0.03 | 0.03 | 54 | 1008.3 |
| 20260902224547 | 30 | 150 | 0.0 | 0.0 | 0.00 | 0.03 | 0.03 | 53 | 1008.3 |
| 20260902223035 | 30 | 150 | 0.0 | 0.0 | 0.00 | 0.03 | 0.03 | 55 | 1008.4 |
| 20260902221538 | 30 | 151 | 0.0 | 0.0 | 0.00 | 0.03 | 0.03 | 54 | 1008.4 |
| 20260902220039 | 30 | 150 | 0.0 | 0.0 | 0.00 | 0.03 | 0.03 | 55 | 1008.4 |
| 20260902214531 | 30 | 159 | 0.0 | 0.0 | 0.00 | 0.03 | 0.03 | 54 | 1008.5 |
| 20260902213026 | 30 | 159 | 0.0 | 0.0 | 0.00 | 0.03 | 0.03 | 54 | 1008.7 |
| 20260902211523 | 29 | 153 | 0.0 | 0.0 | 0.00 | 0.03 | 0.03 | 57 | 1008.9 |
| 20260902210023 | 29 | 148 | 0.0 | 0.0 | 0.00 | 0.03 | 0.03 | 56 | 1008.8 |
| 20260902204523 | 29 | 135 | 0.0 | 0.0 | 0.00 | 0.03 | 0.03 | 56 | 1008.7 |
| 20260902203050 | 28 | 157 | 0.0 | 0.0 | 0.00 | 0.03 | 0.03 | 57 | 1008.8 |
| 20260902201548 | 28 | 135 | 0.0 | 0.0 | 0.00 | 0.03 | 0.03 | 57 | 1009.0 |
| 20260902200042 | 28 | 131 | 0.0 | 0.0 | 0.00 | 0.03 | 0.03 | 58 | 1009.2 |
| 20260902194545 | 28 | 74 | 0.0 | 0.0 | 0.00 | 0.03 | 0.03 | 58 | 1009.4 |
| 20260902193040 | 27 | 146 | 0.0 | 0.0 | 0.00 | 0.03 | 0.03 | 59 | 1009.7 |
| 20260902191553 | 27 | 146 | 0.0 | 0.0 | 0.00 | 0.03 | 0.03 | 58 | 1009.9 |
| 20260902190051 | 27 | 137 | 0.0 | 0.0 | 0.00 | 0.03 | 0.03 | 59 | 1010.0 |
| 20260902184532 | 27 | 44 | 0.0 | 0.0 | 0.00 | 0.03 | 0.03 | 61 | 1009.9 |
| 20260902183037 | 26 | 68 | 0.0 | 0.0 | 0.00 | 0.03 | 0.03 | 62 | 1010.1 |
| 20260902181531 | 26 | 5 | 0.0 | 0.0 | 0.00 | 0.03 | 0.03 | 62 | 1010.0 |
| 20260902180034 | 26 | 96 | 0.0 | 0.0 | 0.00 | 0.03 | 0.03 | 61 | 1010.1 |
| 20260902174525 | 26 | 139 | 0.0 | 0.0 | 0.00 | 0.03 | 0.03 | 62 | 1010.2 |
| 20260902173033 | 26 | 86 | 0.0 | 0.0 | 0.00 | 0.03 | 0.03 | 64 | 1010.5 |
| 20260902171521 | 26 | 88 | 0.0 | 0.0 | 0.00 | 0.03 | 0.03 | 66 | 1010.8 |
| 20260902170017 | 25 | 135 | 0.0 | 0.0 | 0.00 | 0.03 | 0.03 | 67 | 1011.1 |
| 20260902164514 | 25 | 140 | 0.0 | 0.0 | 0.00 | 0.03 | 0.03 | 68 | 1011.3 |
| 20260902163012 | 24 | 140 | 0.0 | 0.0 | 0.00 | 0.03 | 0.03 | 68 | 1010.8 |
| 20260902161521 | 23 | 144 | 0.0 | 0.0 | 0.00 | 0.03 | 0.03 | 70 | 1010.7 |
| 20260902160043 | 24 | 136 | 0.0 | 0.0 | 0.00 | 0.03 | 0.03 | 69 | 1010.8 |
| 20260902154538 | 23 | 117 | 0.0 | 0.0 | 0.00 | 0.03 | 0.03 | 71 | 1010.8 |
| 20260902153033 | 23 | 169 | 0.0 | 0.0 | 0.00 | 0.03 | 0.03 | 71 | 1010.3 |
| 20260902151534 | 23 | 92 | 0.0 | 0.0 | 0.00 | 0.03 | 0.03 | 74 | 1010.4 |
| 20260902150028 | 22 | 82 | 0.0 | 0.0 | 0.00 | 0.03 | 0.03 | 74 | 1010.4 |
| 20260902144530 | 22 | 123 | 0.0 | 0.0 | 0.00 | 0.03 | 0.03 | 76 | 1010.3 |
| 20260902143021 | 22 | 123 | 0.0 | 0.0 | 0.00 | 0.03 | 0.03 | 77 | 1010.6 |
| 20260902141525 | 21 | 123 | 0.0 | 0.0 | 0.00 | 0.03 | 0.03 | 79 | 1010.8 |
| 20260902140018 | 21 | 105 | 0.0 | 0.0 | 0.00 | 0.03 | 0.03 | 81 | 1010.9 |
| 20260902134523 | 21 | 92 | 0.0 | 0.0 | 0.00 | 0.03 | 0.03 | 82 | 1010.8 |
| 20260902133020 | 20 | 141 | 0.0 | 0.0 | 0.00 | 0.03 | 0.03 | 84 | 1010.9 |
| 20260902131513 | 20 | 81 | 0.0 | 0.0 | 0.00 | 0.03 | 0.03 | 86 | 1010.7 |
| 20260902130014 | 19 | 88 | 0.0 | 0.0 | 0.00 | 0.03 | 0.03 | 88 | 1010.7 |
| 20260902124513 | 18 | 101 | 0.0 | 0.0 | 0.00 | 0.03 | 0.03 | 90 | 1010.8 |
| 20260902123042 | 18 | 78 | 0.0 | 0.0 | 0.00 | 0.03 | 0.03 | 90 | 1010.8 |
| 20260902121541 | 18 | 119 | 0.0 | 0.0 | 0.00 | 0.03 | 0.03 | 89 | 1010.9 |
| 20260902120040 | 18 | 119 | 0.0 | 0.0 | 0.00 | 0.03 | 0.03 | 89 | 1010.6 |
| 20260902114538 | 18 | 134 | 0.0 | 0.0 | 0.00 | 0.03 | 0.03 | 89 | 1010.4 |
| 20260902113037 | 18 | 134 | 0.0 | 0.0 | 0.00 | 0.03 | 0.03 | 89 | 1010.6 |
| 20260902111536 | 18 | 174 | 0.0 | 0.0 | 0.00 | 0.03 | 0.03 | 88 | 1011.0 |
| 20260902110037 | 18 | 160 | 0.0 | 0.0 | 0.00 | 0.03 | 0.03 | 87 | 1010.7 |
| 20260902104508 | 18 | 202 | 0.0 | 0.0 | 0.00 | 0.03 | 0.03 | 86 | 1011.1 |
| 20260902103004 | 18 | 203 | 0.0 | 0.0 | 0.00 | 0.03 | 0.03 | 85 | 1011.1 |
| 20260902101600 | 18 | 203 | 0.0 | 0.0 | 0.00 | 0.03 | 0.03 | 84 | 1011.8 |
| 20260902100059 | 18 | 207 | 0.0 | 0.0 | 0.00 | 0.03 | 0.03 | 83 | 1011.4 |
| 20260902094557 | 19 | 228 | 0.0 | 0.0 | 0.00 | 0.03 | 0.03 | 81 | 1011.4 |
| 20260902093053 | 19 | 166 | 0.0 | 0.0 | 0.00 | 0.03 | 0.03 | 79 | 1011.1 |
| 20260902091552 | 20 | 179 | 0.0 | 0.0 | 0.00 | 0.03 | 0.03 | 79 | 1010.1 |
| 20260902090050 | 20 | 44 | 0.0 | 0.0 | 0.00 | 0.03 | 0.03 | 79 | 1009.2 |
| 20260902084549 | 20 | 26 | 0.0 | 0.0 | 0.00 | 0.03 | 0.03 | 79 | 1009.3 |
| 20260902083046 | 20 | 99 | 0.0 | 0.0 | 0.00 | 0.03 | 0.03 | 79 | 1009.5 |
| 20260902081513 | 20 | 61 | 0.0 | 0.0 | 0.00 | 0.03 | 0.03 | 82 | 1009.8 |
| 20260902080012 | 20 | 109 | 0.0 | 0.0 | 0.00 | 0.03 | 0.03 | 84 | 1010.6 |
| 20260902074508 | 20 | 78 | 0.0 | 0.0 | 0.00 | 0.03 | 0.03 | 85 | 1010.1 |
| 20260902073008 | 20 | 100 | 0.0 | 0.0 | 0.03 | 0.03 | 0.03 | 85 | 1010.4 |
| 20260902071507 | 20 | 40 | 0.0 | 0.0 | 0.03 | 0.03 | 0.03 | 83 | 1009.8 |
| 20260902070004 | 21 | 92 | 0.0 | 0.0 | 0.03 | 0.03 | 0.03 | 82 | 1010.8 |
| 20260902064600 | 21 | 141 | 0.0 | 0.0 | 0.03 | 0.03 | 0.03 | 81 | 1011.7 |
| 20260902063114 | 21 | 124 | 0.0 | 0.0 | 0.00 | 0.00 | 0.00 | 79 | 1012.0 |
| 20260902061557 | 21 | 5 | 0.0 | 0.0 | 0.00 | 0.00 | 0.00 | 77 | 1011.9 |